STARLINK-2713 (48602 NORAD) Tracking and Keplerian Element Data

This shows tracking and keplerian element data for the satellite.

Feedback or suggestion? Click here.




ElementValue
Catalog48602
NameSTARLINK-2713
Epoch Orbit364
Epoch Day214.91667824
Epoch Year2021
RAAN104.0681
Inclination53.0548
Eccentricity0.0001859
Argument of Perigee52.1404
Mean Anonmoly124.8565
Mean Motion15.42166771
Decay Rate-0.00010803
L11 48602U 21041BB 21214.91667824 -.00010803 00000-0 -23903-3 0 9995
L22 48602 53.0548 104.0681 0001859 52.1404 124.8565 15.42166771 3640

Live tracking and technical data element details for STARLINK-2713 (NORAD 48602). STARLINK-2713 can be tracked NOW for your location showing map with azimuth and elevation plus other details from your city location.

Track the satellite on the map from your city or location and see movement details for azimuth, elevation, latitude, longitude, range, height, and movement on the map or in text.







IsCatalogInMostPopularTable: catalog: 48602, numindb: 22
Update: records affected: 1



GetName: 48602 STARLINK-2713

Hit Count: updated at: Tue, 03 Aug 2021 20:17:58 GMT